This is the latest recevied weather packets stored in our database for station/object VK2BLR. If no packets are shown the sender has not sent any weather packets the latest 10 day(s).
| Time | Temp. | Humidity | Pressure | Rain* | Wind** | Luminosity | Snow |
|---|---|---|---|---|---|---|---|
| 1787625392 | 15.56° C | 91% | 1014.8 hPa | 0.51 mm | - | - | - |
| 1787624491 | 15.56° C | 90% | 1015.2 hPa | 0.51 mm | - | - | - |
| 1787623590 | 15.56° C | 88% | 1015.3 hPa | 0.51 mm | - | - | - |
| 1787622692 | 15.56° C | 86% | 1015.5 hPa | 0.25 mm | - | - | - |
| 1787621792 | 16.11° C | 86% | 1015.6 hPa | 0 mm | - | - | - |
| 1787620891 | 15.56° C | 86% | 1015.8 hPa | 0 mm | - | - | - |
| 1787619992 | 16.11° C | 84% | 1015.9 hPa | 0 mm | - | - | - |
| 1787619091 | 16.11° C | 83% | 1016.3 hPa | 0 mm | - | - | - |
| 1787618191 | 16.11° C | 83% | 1016.1 hPa | 0 mm | - | - | - |
| 1787617291 | 16.11° C | 84% | 1016.2 hPa | 0 mm | - | - | - |
| 1787616391 | 16.11° C | 85% | 1016.1 hPa | 0 mm | - | - | - |
| 1787615492 | 16.11° C | 88% | 1016.3 hPa | 0 mm | - | - | - |
| 1787614590 | 15.56° C | 90% | 1016.3 hPa | 0 mm | - | - | - |
| 1787613692 | 15° C | 90% | 1016.3 hPa | 0 mm | - | - | - |
| 1787612791 | 15° C | 90% | 1016.4 hPa | 0 mm | - | - | - |
| 1787611890 | 15° C | 89% | 1016.6 hPa | 0.51 mm | - | - | - |
| 1787610990 | 14.44° C | 88% | 1016.5 hPa | 0.51 mm | - | - | - |
| 1787610092 | 14.44° C | 87% | 1016.5 hPa | 0.51 mm | - | - | - |
| 1787609191 | 14.44° C | 87% | 1016.6 hPa | 0.51 mm | - | - | - |
| 1787608291 | 14.44° C | 86% | 1016.5 hPa | 0.25 mm | - | - | - |
| 1787607392 | 14.44° C | 85% | 1016.4 hPa | 0.51 mm | - | - | - |
| 1787606492 | 14.44° C | 84% | 1016.1 hPa | 0.25 mm | - | - | - |
| 1787605591 | 14.44° C | 85% | 1016 hPa | 0.25 mm | - | - | - |
| 1787604690 | 14.44° C | 85% | 1015.7 hPa | 0.25 mm | - | - | - |
| 1787603791 | 13.89° C | 84% | 1015.7 hPa | 0 mm | - | - | - |
* Rain latest hour (hover to see other rain measurements)
** Current wind speed in m/s (hover to see current wind gust speed)